Location: Pinhey's Point
(45.4411°N, 75.9539°W)
Time: 02:48:43
(UTC-04:00)

Daily predictions for brighter satellites

Satellite Brightness Start Highest point End
(mag) Time Altitude Azimuth Time Altitude Azimuth Time Altitude Azimuth
Okean 2 Rocket 3.1 00:05:30 66° SW 00:05:57 73° W 00:10:24 10° N
Cosmos 405 Rocket 3.5 00:02:34 10° NNW 00:05:53 40° W 00:05:53 40° W
Cosmos 1980 Rocket 4.3 00:06:32 12° E 00:06:32 12° E 00:08:25 10° ENE
Lacrosse 5 rocket 3.8 00:07:30 10° WNW 00:10:16 20° NNW 00:13:07 10° NNE
Cosmos 2266 Rocket 4.0 00:16:56 50° SSE 00:18:21 64° E 00:24:25 10° NNE
Okean 1 Rocket 4.3 00:22:06 30° ENE 00:22:06 30° ENE 00:25:30 10° NNE
ISS -1.6 00:19:34 10° WNW 00:22:25 27° N 00:25:16 10° NE
Cosmos 2315 Rocket 4.3 00:17:26 10° N 00:23:31 53° ENE 00:25:09 42° ESE
Terra 4.1 00:28:42 11° WSW 00:30:15 13° W 00:32:29 10° WNW
Cosmos 2297 Rocket 2.1 00:26:31 10° NNW 00:32:14 90° SW 00:33:14 62° SSE
Cosmos 1371 Rocket 4.0 00:32:35 63° SE 00:32:51 64° ESE 00:38:01 10° NNE
Cosmos 1697 Rocket 3.4 00:33:16 36° ESE 00:33:16 36° ESE 00:38:17 10° NE
Cosmos 1190 Rocket 4.1 00:33:01 10° NNW 00:38:13 65° ENE 00:39:01 57° ESE
BREEZE-M DEB 3.4 00:40:45 10° WNW 00:45:21 48° NNW 00:45:21 48° NNW
CZ-4C R/B 3.5 00:40:28 10° NNW 00:47:16 53° NE 00:52:58 18° ESE
ALOS 2 2.9 00:49:15 58° W 00:49:15 58° W 00:53:24 10° NNW
Cosmos 1025 Rocket 3.5 00:46:09 10° N 00:50:17 51° ENE 00:50:17 51° ENE
BREEZE M DEB (TANK) 3.9 00:47:36 10° W 00:50:51 34° NW 00:50:51 34° NW
BREEZE-M (TANK) 3.3 00:45:32 10° WNW 00:54:15 66° N 00:55:07 48° ENE
USA 229 DEB 3.7 00:54:44 52° SSE 00:55:55 59° ESE 01:02:43 10° NE
USA 229 3.7 00:54:52 52° SSE 00:56:01 58° ESE 01:02:49 10° NE
Cosmos 2082 3.8 00:50:24 10° NNW 00:56:01 58° WSW 00:56:36 55° SW
Cosmos 1624 Rocket 3.9 00:56:42 73° S 00:57:14 85° ESE 01:02:37 10° NNE
Cosmos 2322 Rocket 4.4 00:56:46 11° E 00:57:15 11° E 00:59:03 10° ENE
Cosmos 2278 3.7 00:58:42 56° SW 00:59:55 78° WNW 01:05:39 10° NNE
Cosmos 407 Rocket 3.4 00:55:32 10° NNW 01:00:54 90° ENE 01:01:29 72° SSE
CZ-2C R/B 3.8 01:00:42 37° WSW 01:01:02 37° W 01:05:39 10° NNW
Cosmos 1140 Rocket 4.2 00:59:12 10° N 01:04:11 46° ENE 01:05:28 38° ESE
Nadezhda 2 Rocket 4.3 01:06:29 59° S 01:07:45 90° SW 01:13:54 10° N
ATLAS CENTAUR R/B 3.6 01:09:13 14° W 01:11:18 20° NW 01:14:13 10° N
Genesis I 4.0 01:09:46 10° NNW 01:13:36 49° NE 01:13:36 49° NE
Cosmos 1238 Rocket 3.9 01:10:29 10° N 01:15:35 62° E 01:16:45 51° SE
Cosmos 921 Rocket 3.1 01:16:36 71° NNE 01:16:36 71° NNE 01:20:25 10° NNE
Okean 2 3.6 01:13:05 10° N 01:16:46 68° N 01:16:46 68° N
Cosmos 1300 Rocket 4.2 01:18:05 45° WNW 01:18:05 45° WNW 01:22:17 10° N
Cosmos 1892 Rocket 4.1 01:15:31 10° N 01:19:53 49° ENE 01:20:04 48° E
GP-B 3.6 01:16:08 10° N 01:20:22 50° W 01:20:22 50° W
Cosmos 2227 Rocket 3.2 01:16:20 10° NW 01:21:13 31° WSW 01:21:18 31° WSW
CZ-2C R/B 3.7 01:17:04 10° N 01:21:43 35° WNW 01:23:17 29° W
Cosmos 1689 Rocket 3.9 01:22:59 34° NNE 01:22:59 34° NNE 01:25:02 10° N
CZ-4C R/B 4.5 01:27:08 32° NNW 01:27:08 32° NNW 01:29:06 10° NNW
Cosmos 1536 3.9 01:27:01 36° WNW 01:27:01 36° WNW 01:30:35 10° N
CZ-4B R/B 2.5 01:28:01 47° N 01:28:01 47° N 01:30:38 10° N
Cosmos 2056 Rocket 3.8 01:27:06 50° WSW 01:27:56 57° WNW 01:32:59 10° NNE
Landsat 5 3.7 01:29:26 60° N 01:29:26 60° N 01:32:42 10° N
Cosmos 1954 Rocket 3.9 01:24:22 10° NNW 01:29:39 89° ENE 01:30:15 71° SSE
Cosmos 1515 4.3 01:30:21 10° N 01:33:22 53° NNW 01:33:22 53° NNW
Cosmos 1656 4.1 01:33:33 42° WSW 01:35:00 54° WNW 01:40:27 10° NNE
Mayak -0.4 01:32:40 10° N 01:36:37 40° WNW 01:36:40 40° WNW
Cosmos 2263 Rocket 3.8 01:33:25 10° N 01:38:27 31° NE 01:43:23 10° ESE
NOSS 3-1 (C) 3.5 01:45:01 52° SSE 01:45:51 57° ESE 01:52:10 10° NE
Cosmos 1461 3.3 01:43:41 10° NNW 01:47:59 62° NE 01:48:34 55° E
Cosmos 2360 Rocket 4.4 01:47:14 11° ESE 01:48:57 12° E 01:51:04 10° ENE
Cosmos 1980 Rocket 2.1 01:48:17 64° SSW 01:49:13 85° ESE 01:54:53 10° NNE
Lacrosse 5 rocket 4.4 01:48:26 10° NNW 01:50:41 15° N 01:52:59 10° NE
BREEZE-M DEB (TANK) 3.0 01:52:59 44° NNE 01:52:59 44° NNE 01:57:08 10° ENE
Cosmos 1544 Rocket 3.5 01:53:00 75° E 01:53:00 75° E 01:57:27 10° NNE
Cosmos 1452 Rocket 3.4 01:53:21 65° SW 01:54:07 81° WNW 01:59:27 10° NNE
Cosmos 1743 3.6 01:55:02 42° ENE 01:55:02 42° ENE 01:58:24 10° NNE
ISS -2.2 01:56:26 10° NW 01:59:28 35° NNE 02:02:30 10° E
Cosmos 1745 Rocket 3.9 01:58:16 53° SSW 01:59:50 87° W 02:06:02 10° N
USA 81 4.3 01:54:38 10° N 01:59:54 64° E 02:01:08 49° SE
Cosmos 1850 Rocket 4.0 01:57:51 10° NNW 02:03:15 84° ENE 02:04:27 55° SSE
Cosmos 1500 3.8 02:03:46 50° NW 02:03:46 50° NW 02:07:02 10° N
Cosmos 1455 Rocket 2.9 02:09:22 84° WSW 02:09:26 85° W 02:13:51 10° N
Cosmos 614 Rocket 4.0 02:05:06 10° NNW 02:10:05 58° WSW 02:10:17 57° WSW
Cosmos 2297 Rocket 4.2 02:12:43 10° WNW 02:15:01 14° W 02:15:01 14° W
Cosmos 1697 Rocket 3.7 02:14:58 28° W 02:17:08 38° NW 02:22:23 10° NNE
Cosmos 1437 Rocket 3.4 02:18:54 48° ESE 02:19:07 48° E 02:23:06 10° NNE
Cosmos 1975 3.4 02:20:34 47° WNW 02:20:34 47° WNW 02:24:24 10° N
USA 234 3.4 02:15:19 10° ENE 02:21:44 55° SE 02:23:38 42° S
PSLV R/B 4.3 02:21:26 52° ESE 02:22:11 62° ENE 02:26:22 10° N
Cosmos 1420 Rocket 4.1 02:22:09 52° WSW 02:23:13 66° WNW 02:28:24 10° NNE
Meteor 1-21 4.2 02:20:24 10° N 02:26:02 79° E 02:27:59 42° SSE
Cosmos 839 Rocket 4.1 02:27:31 38° SW 02:29:56 69° NW 02:36:10 10° NNE
SL-16 R/B 2.3 02:30:23 47° S 02:31:55 68° ESE 02:37:33 10° NNE
CZ-4C R/B 3.2 02:29:07 10° NW 02:35:56 45° WSW 02:38:04 37° SSW
PSLV R/B 4.1 02:32:40 10° N 02:37:20 55° WNW 02:38:14 47° WSW
H-2A R/B 3.0 02:33:40 10° N 02:37:30 41° WNW 02:37:42 41° WNW
ADEOS Rocket 3.4 02:33:07 10° NNE 02:39:18 55° E 02:41:50 32° SSE
Cosmos 2322 Rocket 2.2 02:38:35 47° S 02:40:18 79° ESE 02:46:02 10° NNE
Cosmos 1602 Rocket 3.5 02:37:17 10° NNW 02:41:44 69° W 02:42:11 63° SW
Cosmos 44 3.6 02:40:37 10° NNW 02:44:55 56° NE 02:48:56 12° SE
SL-08 R/B 3.4 02:43:23 38° SSE 02:45:03 71° ENE 02:49:40 10° N
Cosmos 1741 Rocket 4.4 02:41:20 10° NNW 02:46:16 43° WSW 02:46:46 42° WSW
ATLAS 2AS CENTAUR R/B 4.2 02:43:40 19° SSE 02:47:49 31° ESE 02:54:38 10° NE
ARIANE 5 R/B 4.0 02:44:00 10° NE 02:48:26 28° E 02:51:22 17° SE
Helios 1A Rocket 2.7 02:46:56 10° NNE 02:50:59 81° WNW 02:51:30 66° SW
COBE Rocket 4.1 02:46:20 10° NNE 02:51:31 70° E 02:53:26 39° S
Cosmos 1666 3.0 02:51:40 52° W 02:51:46 52° WNW 02:55:34 10° N
NOSS 3-1 (A) 3.5 02:50:00 37° SW 02:52:29 76° NW 02:59:09 10° NE
Resurs 1-4 Rocket 3.2 02:47:47 10° NNE 02:52:39 36° E 02:55:27 21° SSE
Cosmos 1331 Rocket 4.0 02:58:37 41° S 03:00:22 73° ESE 03:05:33 10° NNE
AQUA 3.9 02:56:32 10° NNE 03:01:18 71° ESE 03:02:59 40° S
SL-8 R/B 4.4 03:05:51 34° SSE 03:06:32 36° SE 03:10:57 10° ENE
Cosmos 1709 Rocket 4.2 03:08:07 33° SW 03:10:34 53° WNW 03:16:34 10° N
CBERS-1 4.0 03:07:29 10° NNE 03:12:39 83° WNW 03:14:46 37° SSW
NPP 3.6 03:09:27 10° N 03:14:51 75° WNW 03:17:13 35° SSW
MOS 1 Rocket 4.5 03:11:28 10° NNE 03:15:36 33° E 03:18:18 18° SSE
CZ-2D R/B 2.6 03:10:40 10° NNE 03:16:06 58° E 03:19:19 24° S
ATLAS 3B R/B 3.7 03:09:41 10° NNW 03:16:15 46° NE 03:22:31 10° ESE
Cosmos 1606 Rocket 3.7 03:15:26 34° S 03:17:14 69° E 03:21:41 10° NNE
Cosmos 1486 Rocket 4.0 03:14:32 10° NNW 03:19:53 82° ENE 03:24:38 13° SSE
DELTA 2 R/B (1) 4.3 03:19:50 30° S 03:20:55 33° SSE 03:25:51 10° E
IRS-P3 4.3 03:15:38 10° N 03:20:56 63° WNW 03:23:19 32° SW
UNK 3.7 03:19:05 26° SSE 03:21:42 90° SE 03:26:22 10° NNW
Cosmos 2263 Rocket 2.5 03:17:07 10° NW 03:22:35 48° WSW 03:24:59 30° SSW
Cosmos 1842 4.2 03:21:45 10° NNW 03:25:11 30° W 03:25:18 30° W
Cosmos 1271 Rocket 4.5 03:24:17 14° SSE 03:27:00 29° E 03:30:30 10° NNE
Cosmos 44 Rocket 3.3 03:25:59 10° NW 03:30:35 53° WSW 03:33:19 23° S
Lacrosse 5 rocket 3.4 03:27:29 10° NW 03:30:55 28° NNE 03:34:31 10° E
UNKNOWN OBJECT B 4.3 03:27:59 10° NNE 03:31:26 31° E 03:34:04 15° SSE
SL-16 R/B 2.5 03:26:51 19° S 03:31:35 73° WSW 03:37:53 10° NNW
Cosmos 2360 Rocket 2.2 03:29:01 29° SSW 03:32:01 83° ESE 03:37:42 10° NNE
NOSS 2-3 (C) 4.1 03:30:39 30° SSW 03:32:55 62° ESE 03:38:24 10° NE
Cosmos 1980 Rocket 4.1 03:30:03 10° W 03:33:58 19° NW 03:37:59 10° N
Cosmos 2219 Rocket 3.9 03:31:32 10° SSE 03:36:05 25° ESE 03:40:38 10° NE
ISS -3.9 03:32:52 10° WNW 03:36:05 58° SW 03:39:17 10° SE
COSMOS 2428 3.6 03:34:05 17° S 03:38:09 43° ESE 03:43:33 10° NE
Cosmos 1825 Rocket 3.8 03:33:56 10° NNW 03:38:12 49° W 03:39:51 32° SSW
Cosmos 1758 Rocket 3.5 03:35:38 10° NNW 03:39:56 65° W 03:42:06 28° S
Iridium 4 Rocket 3.8 03:35:50 20° S 03:40:02 88° E 03:45:39 10° N
Cosmos 1844 Rocket 3.3 03:37:15 10° NNW 03:42:53 60° ENE 03:48:28 10° SE
Cosmos 2184 Rocket 4.0 03:42:25 24° SSW 03:46:18 68° W 03:52:28 10° N
Cosmos 2228 2.9 03:50:08 23° S 03:52:45 88° E 03:57:05 10° N
Cosmos 2333 Rocket 3.7 03:52:14 10° SSE 03:57:08 30° ESE 04:02:00 10° NE
Cosmos 1302 Rocket 4.1 03:54:06 24° SW 03:57:19 65° WNW 04:02:36 10° NNE
ADEOS 3.5 03:52:26 10° NNE 03:57:41 81° WNW 04:01:27 19° SSW
Cosmos 2322 3.7 03:54:10 23° SSW 03:57:50 77° WNW 04:03:31 10° NNE
IRS-1D 3.6 03:56:39 10° N 04:01:32 59° WNW 04:04:48 21° SW
Meteor 2-5 Rocket 3.7 03:56:30 10° NNW 04:02:09 74° W 04:07:52 10° S
Spot 4 Rocket 4.3 03:57:49 10° N 04:02:53 56° WNW 04:06:19 20° SW
USA 234 3.7 03:58:23 10° NE 04:04:46 57° NNW 04:10:58 11° WSW
Meteor 1-4 Rocket 3.7 04:04:51 22° WSW 04:06:08 28° WNW 04:09:17 10° N
Meteor 1-24 Rocket 3.8 04:01:14 10° N 04:06:39 76° E 04:12:12 10° SSE
BREEZE-M DEB (TANK) 3.0 04:04:07 10° WNW 04:08:11 40° N 04:10:26 10° ENE
Cosmos 2278 Rocket 3.6 04:04:06 10° NNW 04:09:28 42° NE 04:14:48 10° SE
Cosmos 1707 3.2 04:06:45 10° NNW 04:10:25 42° W 04:12:43 20° SSW
NOSS 2-3 (D) 4.0 04:08:09 20° SW 04:11:29 73° NW 04:17:10 10° NE
Cosmos 972 Rocket 3.9 04:08:18 17° SSW 04:12:06 89° ESE 04:17:10 10° NNE
Cosmos 1503 Rocket 4.0 04:06:58 10° NNW 04:12:14 69° WSW 04:17:32 10° S
Cosmos 1378 3.4 04:09:35 10° NNW 04:13:13 48° W 04:15:47 17° SSW
Nadezhda 3 Rocket 4.0 04:07:26 10° NNW 04:13:38 70° W 04:19:53 10° S
SL-16 R/B 3.8 04:12:15 11° W 04:16:32 24° NW 04:21:04 10° N
Cosmos 1766 3.5 04:14:25 11° S 04:18:05 71° E 04:22:02 10° NNE
Cosmos 2058 Rocket 3.6 04:15:38 19° SW 04:18:37 45° WNW 04:22:58 10° N
Intercosmos 24 4.2 04:15:17 12° S 04:18:49 84° E 04:24:08 10° N
GENESIS II 4.1 04:16:48 10° NW 04:20:45 73° SW 04:24:37 10° SSE
Cosmos 962 Rocket 4.5 04:15:09 10° S 04:21:16 88° W 04:27:27 10° N
OAO 3 Rocket 4.4 04:21:51 17° SW 04:24:11 24° S 04:28:04 10° SE
ADEOS Rocket 4.3 04:19:14 10° N 04:24:24 27° WNW 04:28:47 12° WSW
Cosmos 2322 Rocket 3.9 04:20:46 10° W 04:25:02 21° NW 04:29:19 10° N
Cosmos 44 4.5 04:22:42 10° WNW 04:25:43 18° WSW 04:27:12 16° SW
Cosmos 2333 4.2 04:21:55 14° SSW 04:26:58 88° WNW 04:32:41 10° NNE
ATLAS CENTAUR R/B 3.3 04:19:55 10° NW 04:27:02 46° NNE 04:29:59 10° E
ARIANE 5 R/B 3.2 04:22:53 10° N 04:27:38 40° WNW 04:31:42 14° SW
Cosmos 1812 Rocket 3.7 04:24:52 10° S 04:29:13 73° E 04:33:34 10° NNE
ADEOS II 3.0 04:25:14 10° NNE 04:30:20 48° E 04:35:24 10° S
Resurs 1-4 Rocket 3.1 04:27:45 10° N 04:32:25 33° WNW 04:36:32 13° SW
Cosmos 1184 Rocket 3.9 04:30:45 10° NNW 04:33:37 27° W 04:35:46 14° SW
Cosmos 1844 3.6 04:28:17 10° NNW 04:33:53 74° WSW 04:39:30 10° SSE
Okean O Rocket 3.2 04:30:30 10° NNE 04:34:35 34° E 04:38:40 10° SSE
Cosmos 1992 Rocket 4.0 04:29:41 11° SSW 04:34:43 88° WNW 04:39:57 10° NNE
ATLAS 2AS CENTAUR R/B 3.2 04:31:06 13° SW 04:38:14 73° NW 04:46:27 10° NE
Cosmos 1674 4.1 04:34:58 10° N 04:38:40 42° ENE 04:42:19 10° SSE
Lacrosse 5 4.2 04:36:23 10° SSE 04:39:19 15° ESE 04:42:16 10° E
Cosmos 2154 Rocket 4.4 04:34:55 11° SSW 04:40:45 48° WNW 04:46:50 10° N
BREEZE M DEB (TANK) 3.3 04:38:19 10° WNW 04:40:50 48° NNE 04:47:02 10° E
USA 161 1.6 04:41:28 10° S 04:44:26 55° W 04:47:18 10° NNW
SL-8 R/B 3.8 04:44:01 10° WSW 04:48:51 81° NNW 04:53:43 10° ENE
Cosmos 1340 Rocket 3.7 04:46:31 10° NNW 04:50:02 31° W 04:53:31 10° SSW
CZ-2D R/B 4.2 04:46:40 10° N 04:50:42 39° WNW 04:54:38 10° SW
Cosmos 1805 3.2 04:48:17 10° S 04:52:12 83° W 04:56:09 10° N
MOS 1 Rocket 4.5 04:49:58 10° N 04:53:43 26° WNW 04:57:20 10° WSW
Cosmos 389 Rocket 3.2 04:51:49 10° SW 04:55:09 38° WNW 04:58:33 10° N
CZ-2D R/B 3.6 04:51:31 10° N 04:55:45 23° WNW 04:59:58 10° WSW
Cosmos 1356 Rocket 3.4 04:56:01 10° NNW 05:00:00 59° W 05:03:55 10° S
Cosmos 2341 Rocket 4.5 04:55:26 10° SSW 05:01:32 47° WNW 05:07:40 10° N
Cosmos 2366 rocket 4.1 04:55:38 10° S 05:01:48 87° E 05:08:04 10° N
Aureole 2 Rocket 3.2 04:57:54 10° SW 05:01:57 51° WNW 05:05:53 10° NNE
Cosmos 1271 Rocket 4.2 04:59:49 10° SW 05:03:03 23° WNW 05:06:16 10° NNW
UNKNOWN OBJECT B 4.3 05:02:51 10° NNW 05:05:47 21° WNW 05:08:46 10° WSW
DELTA 2 R/B (1) 4.0 05:01:28 10° WSW 05:06:48 47° S 05:12:06 10° ESE
ATLAS 3B R/B 2.9 05:00:38 10° NW 05:06:54 43° WSW 05:12:57 10° S
Lacrosse 5 rocket 1.3 05:06:24 10° NW 05:10:21 61° SW 05:14:33 10° SE
SeaSat 1 2.5 05:05:45 10° SSE 05:10:38 62° WSW 05:15:33 10° NNW
Meteor 2-15 Rocket 4.5 05:06:17 10° NNW 05:12:27 76° W 05:18:34 10° S
